Location: Courçay
(47.2523°N, 0.8761°E)
Time: 20:34:47
(UTC+00:00)

Aureole 3 Rocket - Pass Details

Date: 18 November 2025
Orbit: 398 x 1690 km, 82.5° (Epoch: 10 December)

Event Time Altitude Azimuth Distance (km) Brightness Sun altitude
Rises 16:55:27 0° 154° (SSE) 2,316 6.0 -6.6°
Reaches altitude 10° 16:57:48 10° 134° (SE) 1,445 4.7 -7.0°
Maximum altitude 16:59:58 18° 88° (E) 1,073 3.7 -7.3°
Drops below altitude 10° 17:02:15 10° 42° (NE) 1,531 4.6 -7.7°
Enters shadow 17:03:35 - 30° (NNE) 2,013 5.2 -7.9°
